Flag for U.S.A. Weather past 2 weeks in New York, New York, U.S.A.

Now
83 °F

Sunny.


Feels Like: 84 °F
Forecast: 67 / 85 °F
Wind: No wind

Location: New York City - Central Park

Current Time: Jul 5, 2015 at 3:29:57 PM

Latest Report: Jul 5, 2015 at 2:51 PM


Visibility: 10 mi

Pressure: 30.10 "Hg

Humidity: 50%

Dew point: 62 °F

Location of New YorkLocation

Historic Weather in New York — Graph

°F

New York temperature yesterday

Maximum temperature yesterday: 74 °F (at 3:51 PM)
Minimum temperature yesterday: 70 °F (at 4:51 AM)
Average temperature yesterday: 72 °F

Past Weeks' High & Low Weather Summary

 TemperatureHumidityPressure
High89 °F (Jun 23, 1:51 PM)94% (Jun 28, 5:51 AM)30.13 "Hg (Jun 28, 5:51 AM)
Low59 °F (Jun 27, 8:51 PM)32% (Jun 25, 12:51 PM)29.66 "Hg (Jun 28, 9:51 AM)
Average74 °F62%29.91 "Hg
* Reported Jun 20 1:51 PM — Jul 5 1:51 PM, New York, Weather by CustomWeather, © 2015

Note: Actual official high and low records may vary slightly from our data, if they occured in-between our weather recording intervals... More about our weather records

Advertising

New York weather history for previous 24 hours

 ConditionsComfort  
Time TempWeatherWind HumidityBarometerVisibility
1:51 PM
Sun, Jul 5
81 °FSunny.6 mph54%30.11 "Hg9 mi
12:51 PM80 °FPassing clouds.N/A56%30.12 "Hg10 mi
11:51 AM79 °FSunny.No wind56%30.12 "Hg10 mi
10:51 AM76 °FSunny.No wind60%30.13 "Hg10 mi
9:51 AM73 °FSunny.3 mph62%30.13 "Hg9 mi
8:51 AM72 °FSunny.5 mph66%30.12 "Hg9 mi
7:51 AM70 °FSunny.5 mph68%30.10 "Hg8 mi
6:51 AM70 °FSunny.N/A68%30.08 "Hg8 mi
5:51 AM70 °FOvercast.No wind68%30.07 "Hg8 mi
4:51 AM70 °FOvercast.No wind66%30.06 "Hg9 mi
3:51 AM70 °FOvercast.No wind66%30.04 "Hg10 mi
2:51 AM69 °FOvercast.No wind68%30.04 "Hg9 mi
1:51 AM69 °FClear.No wind68%30.04 "Hg8 mi
12:51 AM69 °FPassing clouds.No wind68%30.03 "Hg7 mi
11:51 PM
Sat, Jul 4
71 °FPassing clouds.5 mph53%30.02 "Hg10 mi
10:51 PM72 °FPassing clouds.No wind52%30.01 "Hg10 mi
9:51 PM71 °FPassing clouds.No wind53%30.00 "Hg10 mi
8:51 PM72 °FPartly sunny.No wind49%29.98 "Hg10 mi
7:51 PM73 °FOvercast.3 mph51%29.97 "Hg10 mi
6:51 PM74 °FScattered clouds.6 mph46%29.95 "Hg10 mi
5:51 PM74 °FBroken clouds.3 mph53%29.94 "Hg10 mi
4:51 PM74 °FSunny.3 mph57%29.94 "Hg10 mi
3:51 PM74 °FPassing clouds.6 mph57%29.94 "Hg10 mi
Weather by CustomWeather, © 2015

See weather overviewHow to use our weather pages